Etusivu
METAR-TAF:

METAR-TAF

Lentoasemat :

Comanche National Grassland

Springfield, Colorado, Yhdysvallat

Leveyspiiri: 37-17N, Pituuspiiri: 102-37W, korkeus merenpinnasta: 1335 m

Tämänhetkinen sää

Tämä raportti tehtiin 59 minuuttia sitten, kello 02.56 UTC
Tuuli 8 kn lounaasta
Lämpötila -2°C
Kosteus 74%
Ilmanpaine 1022 hPa

METAR: KSPD 210256Z AUTO 22008KT M02/M06 A3018 RMK AO1 SLP236 T10221056 53007

Aika: 20:55 (03:55 UTC)


TAF: puuttuu

Säähavainnot ja -ennusteet yli 4000 lentoasemalta (METAR- ja TAF-raportit).

Käytössä olevat sääasemat on merkitty karttaan keltaisilla ja punaisilla pisteillä.

Aseta hiiri pisteen päälle nähdäksesi sääaseman nimen.

Klikkaa sitten nähdäksesi säähavainnot ja -ennusteet.

Kartan vaihtaminen: klikkaa mustalla rastilla varustettuja vihreitä pisteitä, niin voit zoomata sisään; viivalla varustettua vihreää pistettä, niin voit zoomata ulos tai vihreitä nuolia, niin pääset viereisille kartoille.


METAR-TAF: